Simultaneous Nadir Overpasses (SNOs) Predictions

Prediction of SNOs between NPP and TERRA Satellite Orbit:

Table of predicted SNOs for the next 14.0 days since TLE Epoch: 10/8/2022
Index Date (NPP) Time (NPP) Lat,Lon (NPP) SZA (NPP ) Date (TERRA) Time (TERRA) Lat,Lon (TERRA) SZA (TERRA ) Distance(km) Time Diff (sec)
1 10/09/2022 23:41:07 -70.06, 1.20 103.50 10/09/2022 23:41:42 -70.04, 1.25 103.52 2.75 35
2 10/10/2022 00:31:51 69.94, 168.69 76.40 10/10/2022 00:31:09 69.93, 168.74 76.39 2.53 42
3 10/12/2022 15:07:20 70.15, -50.48 77.59 10/12/2022 15:08:32 70.12, -50.38 77.56 5.12 72
4 10/12/2022 15:58:01 -70.00, 117.06 102.55 10/12/2022 15:58:02 -70.00, 117.08 102.56 1.13 1
5 10/12/2022 16:48:43 69.78, -75.30 77.25 10/12/2022 16:47:30 69.83, -75.50 77.29 9.22 73
6 10/15/2022 07:24:12 70.05, 65.44 78.49 10/15/2022 07:24:51 70.04, 65.41 78.48 1.74 39
7 10/15/2022 08:14:54 -69.96,-127.09 101.60 10/15/2022 08:14:20 -69.98,-127.04 101.58 3.16 34
8 10/17/2022 22:50:28 -70.44, 13.31 100.16 10/17/2022 22:51:39 -70.33, 14.07 100.27 30.75 71
9 10/17/2022 23:41:06 70.02,-178.72 79.43 10/17/2022 23:41:10 69.99,-178.76 79.41 3.09 4
10 10/18/2022 00:31:48 -69.92, -11.26 100.66 10/18/2022 00:30:39 -69.93, -11.21 100.65 2.27 69
11 10/20/2022 15:07:16 -70.09, 129.63 99.54 10/20/2022 15:08:01 -70.08, 129.62 99.55 0.91 45
12 10/20/2022 15:58:00 69.99, -62.90 80.37 10/20/2022 15:57:28 69.96, -62.90 80.35 2.49 32



Historial Predications of SNOs between NPP and TERRA
